,,,PA_Meas_PMT16A,,PR_Meas_QMR101_102,,RH_Meas_QMH101,,SR_Meas_QMS101,,TA_Meas_QMH101,,GenWind,,GenWind,
date,time,status,PA,status,PR,status,RH,status,SR,status,TA,status,DirAvg,status,SpdAvg,
2009-09-23, 00:00:04,VALID,1004.16,VALID,0,VALID,87.7321,VALID,0,VALID,23.8398,VALID,1,VALID,0.353516,
2009-09-23, 00:01:04,VALID,1004.15,VALID,0,VALID,87.5948,VALID,0,VALID,23.7601,VALID,1,VALID,0.503125,
2009-09-23, 00:02:04,VALID,1004.16,VALID,0,VALID,87.9686,VALID,0,VALID,23.7407,VALID,1,VALID,0.575,
2009-09-23, 00:03:04,VALID,1004.15,VALID,0,VALID,87.8771,VALID,0,VALID,23.7212,VALID,1,VALID,0.532422,
2009-09-23, 00:04:04,VALID,1004.13,VALID,0,VALID,88.167,VALID,0,VALID,23.723,VALID,1,VALID,0.475391,
2009-09-23, 00:05:04,VALID,1004.1,VALID,0,VALID,88.5179,VALID,0,VALID,23.6823,VALID,1,VALID,0.514453,
2009-09-23, 00:06:04,VALID,1004.07,VALID,0,VALID,87.9381,VALID,0,VALID,23.6646,VALID,1,VALID,0.390234,
2009-09-23, 00:07:04,VALID,1004.06,VALID,0,VALID,87.9534,VALID,0,VALID,23.6646,VALID,1,VALID,0.273828,
2009-09-23, 00:08:04,VALID,1004.04,VALID,0,VALID,88.1288,VALID,0,VALID,23.6646,VALID,1,VALID,0.500781,
2009-09-23, 00:09:04,VALID,1004.02,VALID,0,VALID,87.9457,VALID,0,VALID,23.6452,VALID,1,VALID,0.492188,
2009-09-23, 00:10:04,VALID,1004,VALID,0,VALID,87.8847,VALID,0,VALID,23.6257,VALID,343,VALID,0.398438,
2009-09-23, 00:11:04,VALID,1003.98,VALID,0,VALID,87.5643,VALID,0,VALID,23.6044,VALID,343,VALID,0.475391,
2009-09-23, 00:12:04,VALID,1004,VALID,0,VALID,86.687,VALID,0,VALID,23.6628,VALID,347,VALID,0.578516,
2009-09-23, 00:13:04,VALID,1004.01,VALID,0,VALID,86.0843,VALID,0,VALID,23.7601,VALID,337,VALID,0.507422,
2009-09-23, 00:14:04,VALID,1004.01,VALID,0,VALID,85.0162,VALID,0.100563,VALID,23.8593,VALID,338,VALID,0.419922,
2009-09-23, 00:15:04,VALID,1003.99,VALID,0,VALID,85.3672,VALID,0,VALID,23.9742,VALID,340,VALID,0.469531,
2009-09-23, 00:16:04,VALID,1004.01,VALID,0,VALID,85.6113,VALID,0.100563,VALID,23.9742,VALID,340,VALID,0.266797,
2009-09-23, 00:17:04,VALID,1004.01,VALID,0,VALID,85.9393,VALID,0.100563,VALID,23.9353,VALID,340,VALID,0.2625,
2009-09-23, 00:18:04,VALID,1004,VALID,0,VALID,86.3818,VALID,0,VALID,23.8964,VALID,340,VALID,0.532422,
2009-09-23, 00:19:04,VALID,1004,VALID,0,VALID,87.0989,VALID,0.100563,VALID,23.8575,VALID,358,VALID,0.406641,
2009-09-23, 00:20:04,VALID,1003.98,VALID,0,VALID,87.4956,VALID,0.100563,VALID,23.8185,VALID,358,VALID,0.320313,
2009-09-23, 00:21:04,VALID,1003.99,VALID,0,VALID,87.2286,VALID,0.100563,VALID,23.7407,VALID,358,VALID,0.308594,
2009-09-23, 00:22:04,VALID,1003.96,VALID,0,VALID,87.5795,VALID,0,VALID,23.7619,VALID,358,VALID,0.33125,
2009-09-23, 00:23:04,VALID,1003.95,VALID,0,VALID,87.8313,VALID,0,VALID,23.7425,VALID,358,VALID,0.346875,
2009-09-23, 00:24:04,VALID,1003.96,VALID,0,VALID,87.6711,VALID,0.100563,VALID,23.7212,VALID,358,VALID,0.312891,
2009-09-23, 00:25:04,VALID,1003.95,VALID,0,VALID,87.7703,VALID,0.100563,VALID,23.7035,VALID,358,VALID,0.448047,
2009-09-23, 00:26:04,VALID,1003.91,VALID,0,VALID,87.7855,VALID,0,VALID,23.6628,VALID,358,VALID,0.280078,
2009-09-23, 00:27:04,VALID,1003.91,VALID,0,VALID,87.7016,VALID,0,VALID,23.6841,VALID,358,VALID,0.624219,
2009-09-23, 00:28:04,VALID,1003.9,VALID,0,VALID,87.8466,VALID,0,VALID,23.6841,VALID,358,VALID,0.301562,
2009-09-23, 00:29:04,VALID,1003.9,VALID,0,VALID,88.1593,VALID,0,VALID,23.6841,VALID,358,VALID,0.463281,
2009-09-23, 00:30:04,VALID,1003.86,VALID,0,VALID,88.6018,VALID,0,VALID,23.6646,VALID,358,VALID,0.399219,
2009-09-23, 00:31:04,VALID,1003.85,VALID,0,VALID,88.5713,VALID,0,VALID,23.6257,VALID,358,VALID,0.475,
2009-09-23, 00:32:04,VALID,1003.85,VALID,0,VALID,88.8154,VALID,0,VALID,23.6275,VALID,358,VALID,0.377344,
2009-09-23, 00:33:04,VALID,1003.84,VALID,0,VALID,88.8078,VALID,0,VALID,23.5868,VALID,358,VALID,0.229687,
2009-09-23, 00:34:04,VALID,1003.83,VALID,0,VALID,88.9146,VALID,0,VALID,23.5868,VALID,358,VALID,0,
2009-09-23, 00:35:04,VALID,1003.81,VALID,0,VALID,88.9299,VALID,0,VALID,23.608,VALID,358,VALID,0,
2009-09-23, 00:36:04,VALID,1003.82,VALID,0,VALID,89.1053,VALID,0,VALID,23.6062,VALID,358,VALID,0,
2009-09-23, 00:37:04,VALID,1003.83,VALID,0,VALID,89.5097,VALID,0,VALID,23.6062,VALID,358,VALID,0,
2009-09-23, 00:38:04,VALID,1003.8,VALID,0,VALID,89.914,VALID,0,VALID,23.6275,VALID,358,VALID,0,
2009-09-23, 00:39:04,VALID,1003.81,VALID,0,VALID,89.8148,VALID,0,VALID,23.5868,VALID,358,VALID,0.142578,
2009-09-23, 00:40:04,VALID,1003.79,VALID,0,VALID,89.38,VALID,0,VALID,23.5673,VALID,358,VALID,0,
2009-09-23, 00:41:04,VALID,1003.79,VALID,0,VALID,88.907,VALID,0,VALID,23.5673,VALID,358,VALID,0.269922,
2009-09-23, 00:42:04,VALID,1003.79,VALID,0,VALID,88.8765,VALID,0,VALID,23.5478,VALID,358,VALID,0.15625,
2009-09-23, 00:43:04,VALID,1003.79,VALID,0,VALID,88.907,VALID,0,VALID,23.5673,VALID,358,VALID,0,
2009-09-23, 00:44:04,VALID,1003.78,VALID,0,VALID,89.0061,VALID,0,VALID,23.5673,VALID,358,VALID,0.130859,
2009-09-23, 00:45:04,VALID,1003.77,VALID,0,VALID,89.296,VALID,0,VALID,23.5673,VALID,358,VALID,0.275391,
2009-09-23, 00:46:04,VALID,1003.76,VALID,0,VALID,89.4334,VALID,0,VALID,23.5691,VALID,358,VALID,0.240234,
2009-09-23, 00:47:04,VALID,1003.74,VALID,0,VALID,89.8606,VALID,0,VALID,23.5673,VALID,358,VALID,0.375391,
2009-09-23, 00:48:04,VALID,1003.77,VALID,0,VALID,90.3031,VALID,0,VALID,23.5868,VALID,358,VALID,0.121484,
2009-09-23, 00:49:04,VALID,1003.76,VALID,0,VALID,90.654,VALID,0,VALID,23.5673,VALID,358,VALID,0.0808594,
2009-09-23, 00:50:04,VALID,1003.78,VALID,0,VALID,90.8295,VALID,0,VALID,23.5673,VALID,358,VALID,0.1125,
2009-09-23, 00:51:04,VALID,1003.77,VALID,0,VALID,90.9057,VALID,0,VALID,23.5478,VALID,358,VALID,0,
2009-09-23, 00:52:04,VALID,1003.81,VALID,0,VALID,90.8905,VALID,0,VALID,23.5284,VALID,358,VALID,0,
2009-09-23, 00:53:04,VALID,1003.81,VALID,0,VALID,90.8066,VALID,0,VALID,23.5284,VALID,358,VALID,0,
2009-09-23, 00:54:04,VALID,1003.81,VALID,0,VALID,90.7226,VALID,0,VALID,23.5302,VALID,358,VALID,0,
2009-09-23, 00:55:04,VALID,1003.81,VALID,0,VALID,90.715,VALID,0,VALID,23.5089,VALID,358,VALID,0,
2009-09-23, 00:56:04,VALID,1003.82,VALID,0,VALID,90.715,VALID,0,VALID,23.5284,VALID,358,VALID,0,
2009-09-23, 00:57:04,VALID,1003.78,VALID,0,VALID,90.8371,VALID,0,VALID,23.5284,VALID,358,VALID,0,
2009-09-23, 00:58:04,VALID,1003.75,VALID,0,VALID,91.1117,VALID,0,VALID,23.5673,VALID,358,VALID,0.00117188,
2009-09-23, 00:59:04,VALID,1003.73,VALID,0,VALID,91.333,VALID,0,VALID,23.5868,VALID,358,VALID,0.257813,
2009-09-23, 01:00:04,VALID,1003.72,VALID,0,VALID,91.2948,VALID,0,VALID,23.5868,VALID,358,VALID,0.00351562,
2009-09-23, 01:01:04,VALID,1003.71,VALID,0,VALID,91.2567,VALID,0,VALID,23.5868,VALID,358,VALID,0.362109,
2009-09-23, 01:02:04,VALID,1003.69,VALID,0,VALID,91.1804,VALID,0,VALID,23.5868,VALID,358,VALID,0.428516,
2009-09-23, 01:03:04,VALID,1003.65,VALID,0,VALID,91.333,VALID,0,VALID,23.6275,VALID,358,VALID,0.160547,
2009-09-23, 01:04:04,VALID,1003.64,VALID,0,VALID,91.4092,VALID,0,VALID,23.6257,VALID,358,VALID,0.200391,
2009-09-23, 01:05:04,VALID,1003.59,VALID,0,VALID,91.4169,VALID,0,VALID,23.6044,VALID,358,VALID,0.00703125,
2009-09-23, 01:06:04,VALID,1003.61,VALID,0,VALID,91.2185,VALID,0,VALID,23.6257,VALID,358,VALID,0,
2009-09-23, 01:07:04,VALID,1003.61,VALID,0,VALID,91.1346,VALID,0,VALID,23.6062,VALID,358,VALID,0,
2009-09-23, 01:08:04,VALID,1003.61,VALID,0,VALID,91.0354,VALID,0,VALID,23.6257,VALID,358,VALID,0.455469,
2009-09-23, 01:09:04,VALID,1003.64,VALID,0,VALID,91.2262,VALID,0,VALID,23.6452,VALID,358,VALID,0.208594,
2009-09-23, 01:10:04,VALID,1003.64,VALID,0,VALID,91.249,VALID,0,VALID,23.6646,VALID,358,VALID,0.0015625,
2009-09-23, 01:11:04,VALID,1003.67,VALID,0,VALID,91.0812,VALID,0,VALID,23.6434,VALID,358,VALID,0.00390625,
2009-09-23, 01:12:04,VALID,1003.62,VALID,0,VALID,90.8752,VALID,0,VALID,23.6859,VALID,358,VALID,0.294531,
2009-09-23, 01:13:04,VALID,1003.62,VALID,0,VALID,90.6845,VALID,0,VALID,23.7035,VALID,358,VALID,0.397266,
2009-09-23, 01:14:04,VALID,1003.61,VALID,0,VALID,90.4556,VALID,0,VALID,23.7035,VALID,358,VALID,0.364844,
2009-09-23, 01:15:04,VALID,1003.61,VALID,0,VALID,89.8072,VALID,0,VALID,23.723,VALID,358,VALID,0.336328,
2009-09-23, 01:16:04,VALID,1003.59,VALID,0,VALID,89.5936,VALID,0,VALID,23.7425,VALID,358,VALID,0.297266,
2009-09-23, 01:17:04,VALID,1003.54,VALID,0,VALID,89.6088,VALID,0,VALID,23.8009,VALID,358,VALID,0.528906,
2009-09-23, 01:18:04,VALID,1003.56,VALID,0,VALID,89.4181,VALID,0,VALID,23.8203,VALID,358,VALID,0.292188,
2009-09-23, 01:19:04,VALID,1003.55,VALID,0,VALID,89.296,VALID,0,VALID,23.8593,VALID,358,VALID,0.294922,
2009-09-23, 01:20:04,VALID,1003.55,VALID,0,VALID,89.0367,VALID,0,VALID,23.9195,VALID,358,VALID,0,
2009-09-23, 01:21:04,VALID,1003.56,VALID,0,VALID,88.8459,VALID,0,VALID,23.9371,VALID,302,VALID,0.294531,
2009-09-23, 01:22:04,VALID,1003.51,VALID,0,VALID,88.1746,VALID,0,VALID,23.9955,VALID,302,VALID,0.16875,
2009-09-23, 01:23:04,VALID,1003.53,VALID,0,VALID,88.6018,VALID,0,VALID,24.0929,VALID,302,VALID,0,
2009-09-23, 01:24:04,VALID,1003.56,VALID,0,VALID,88.9299,VALID,0,VALID,24.1123,VALID,302,VALID,0.0703125,
2009-09-23, 01:25:04,VALID,1003.54,VALID,0,VALID,88.6857,VALID,0,VALID,24.1726,VALID,302,VALID,0.0878906,
2009-09-23, 01:26:04,VALID,1003.58,VALID,0,VALID,88.556,VALID,0,VALID,24.1707,VALID,302,VALID,0.167969,
2009-09-23, 01:27:04,VALID,1003.54,VALID,0,VALID,88.701,VALID,0,VALID,24.2097,VALID,302,VALID,0.0375,
2009-09-23, 01:28:04,VALID,1003.53,VALID,0,VALID,88.8002,VALID,0,VALID,24.2097,VALID,302,VALID,0,
2009-09-23, 01:29:04,VALID,1003.53,VALID,0,VALID,89.0519,VALID,0,VALID,24.2291,VALID,302,VALID,0.305469,
2009-09-23, 01:30:04,VALID,1003.54,VALID,0,VALID,89.38,VALID,0,VALID,24.2097,VALID,302,VALID,0.261328,
2009-09-23, 01:31:04,VALID,1003.53,VALID,0,VALID,89.5325,VALID,0,VALID,24.1902,VALID,302,VALID,0,
2009-09-23, 01:32:04,VALID,1003.53,VALID,0,VALID,89.4257,VALID,0,VALID,24.1318,VALID,302,VALID,0,
2009-09-23, 01:33:04,VALID,1003.54,VALID,0,VALID,89.4715,VALID,0,VALID,24.1336,VALID,303,VALID,0.343359,
2009-09-23, 01:34:04,VALID,1003.52,VALID,0,VALID,89.502,VALID,0,VALID,24.1142,VALID,302,VALID,0.0175781,
2009-09-23, 01:35:04,VALID,1003.49,VALID,0,VALID,89.6012,VALID,0,VALID,24.0929,VALID,302,VALID,0,
2009-09-23, 01:36:04,VALID,1003.46,VALID,0,VALID,89.7538,VALID,0,VALID,24.0734,VALID,302,VALID,0.278125,
2009-09-23, 01:37:04,VALID,1003.46,VALID,0,VALID,89.8148,VALID,0,VALID,24.0734,VALID,317,VALID,0.512891,
2009-09-23, 01:38:04,VALID,1003.46,VALID,0,VALID,89.8682,VALID,0,VALID,24.0734,VALID,317,VALID,0.310937,
2009-09-23, 01:39:04,VALID,1003.46,VALID,0,VALID,90.1276,VALID,0,VALID,24.0734,VALID,317,VALID,0.0449219,
2009-09-23, 01:40:04,VALID,1003.41,VALID,0,VALID,90.2268,VALID,0,VALID,24.0734,VALID,317,VALID,0.0429688,
2009-09-23, 01:41:04,VALID,1003.41,VALID,0,VALID,90.3259,VALID,0,VALID,24.0752,VALID,317,VALID,0.3125,
2009-09-23, 01:42:04,VALID,1003.38,VALID,0,VALID,90.036,VALID,0,VALID,24.0539,VALID,317,VALID,0.171484,
2009-09-23, 01:43:04,VALID,1003.4,VALID,0,VALID,90.1505,VALID,0,VALID,24.0947,VALID,317,VALID,0.216797,
2009-09-23, 01:44:04,VALID,1003.36,VALID,0,VALID,90.2954,VALID,0,VALID,24.0929,VALID,317,VALID,0.465234,
2009-09-23, 01:45:04,VALID,1003.38,VALID,0,VALID,90.6235,VALID,0,VALID,24.1123,VALID,317,VALID,0.120312,
2009-09-23, 01:46:04,VALID,1003.34,VALID,0,VALID,90.7379,VALID,0,VALID,24.0929,VALID,317,VALID,0,
2009-09-23, 01:47:04,VALID,1003.36,VALID,0,VALID,90.3946,VALID,0,VALID,24.0929,VALID,328,VALID,0.439063,
2009-09-23, 01:48:04,VALID,1003.34,VALID,0,VALID,90.4175,VALID,0,VALID,24.0929,VALID,334,VALID,0.046875,
2009-09-23, 01:49:04,VALID,1003.31,VALID,0,VALID,90.0818,VALID,0,VALID,24.1336,VALID,338,VALID,0.539453,
2009-09-23, 01:50:04,VALID,1003.3,VALID,0,VALID,90.2344,VALID,0,VALID,24.1123,VALID,9,VALID,0.65,
2009-09-23, 01:51:04,VALID,1003.29,VALID,0,VALID,89.9445,VALID,0,VALID,24.1142,VALID,9,VALID,0.156641,
2009-09-23, 01:52:04,VALID,1003.28,VALID,0,VALID,89.7614,VALID,0,VALID,24.1142,VALID,9,VALID,0.201562,
2009-09-23, 01:53:04,VALID,1003.26,VALID,0,VALID,89.7385,VALID,0,VALID,24.0734,VALID,9,VALID,0.299609,
2009-09-23, 01:54:04,VALID,1003.28,VALID,0,VALID,89.9445,VALID,0,VALID,24.1318,VALID,9,VALID,0.421094,
2009-09-23, 01:55:04,VALID,1003.28,VALID,0,VALID,89.7309,VALID,0,VALID,24.1726,VALID,9,VALID,0.497266,
2009-09-23, 01:56:04,VALID,1003.28,VALID,0,VALID,89.8224,VALID,0,VALID,24.2115,VALID,9,VALID,0.417969,
2009-09-23, 01:57:04,VALID,1003.25,VALID,0,VALID,90.1352,VALID,0,VALID,24.2291,VALID,9,VALID,0.161719,
2009-09-23, 01:58:04,VALID,1003.3,VALID,0,VALID,90.0132,VALID,0,VALID,24.2504,VALID,94,VALID,0.503125,
2009-09-23, 01:59:04,VALID,1003.35,VALID,0,VALID,90.1429,VALID,0,VALID,24.2681,VALID,115,VALID,0.448828,
2009-09-23, 02:00:04,VALID,1003.34,VALID,0,VALID,90.0284,VALID,0,VALID,24.2681,VALID,115,VALID,0.325391,
2009-09-23, 02:01:04,VALID,1003.32,VALID,0,VALID,89.9826,VALID,0,VALID,24.2681,VALID,115,VALID,0.288281,
2009-09-23, 02:02:04,VALID,1003.32,VALID,0,VALID,89.7309,VALID,0,VALID,24.2875,VALID,109,VALID,0.413672,
2009-09-23, 02:03:04,VALID,1003.32,VALID,0,VALID,89.4791,VALID,0,VALID,24.3088,VALID,31,VALID,0.576172,
2009-09-23, 02:04:04,VALID,1003.33,VALID,0,VALID,89.4715,VALID,0,VALID,24.3283,VALID,31,VALID,0.0683594,
2009-09-23, 02:05:04,VALID,1003.3,VALID,0,VALID,89.4257,VALID,0,VALID,24.3673,VALID,31,VALID,0,
2009-09-23, 02:06:04,VALID,1003.28,VALID,0,VALID,89.2579,VALID,0,VALID,24.3673,VALID,31,VALID,0,
2009-09-23, 02:07:04,VALID,1003.24,VALID,0,VALID,89.5325,VALID,0,VALID,24.3867,VALID,31,VALID,0.388281,
2009-09-23, 02:08:04,VALID,1003.21,VALID,0,VALID,89.6241,VALID,0,VALID,24.3867,VALID,31,VALID,0.520703,
2009-09-23, 02:09:04,VALID,1003.19,VALID,0,VALID,89.6088,VALID,0,VALID,24.4043,VALID,31,VALID,0.464453,
2009-09-23, 02:10:04,VALID,1003.2,VALID,0,VALID,89.5859,VALID,0,VALID,24.4257,VALID,31,VALID,0.00976563,
2009-09-23, 02:11:04,VALID,1003.2,VALID,0,VALID,89.235,VALID,0,VALID,24.4257,VALID,31,VALID,0,
2009-09-23, 02:12:04,VALID,1003.15,VALID,0,VALID,89.0138,VALID,0,VALID,24.4628,VALID,31,VALID,0.0625,
2009-09-23, 02:13:04,VALID,1003.15,VALID,0,VALID,89.0824,VALID,0,VALID,24.4628,VALID,31,VALID,0.0582031,
2009-09-23, 02:14:04,VALID,1003.14,VALID,0,VALID,88.8078,VALID,0,VALID,24.4822,VALID,31,VALID,0,
2009-09-23, 02:15:04,VALID,1003.12,VALID,0,VALID,88.5637,VALID,0,VALID,24.4822,VALID,31,VALID,0.142578,
2009-09-23, 02:16:04,VALID,1003.14,VALID,0,VALID,88.6094,VALID,0,VALID,24.5212,VALID,31,VALID,0.459766,
2009-09-23, 02:17:04,VALID,1003.13,VALID,0,VALID,88.6705,VALID,0,VALID,24.5425,VALID,31,VALID,0.533203,
2009-09-23, 02:18:04,VALID,1003.11,VALID,0,VALID,88.9604,VALID,0,VALID,24.5406,VALID,31,VALID,0.54375,
2009-09-23, 02:19:04,VALID,1003.09,VALID,0,VALID,89.4334,VALID,0,VALID,24.5406,VALID,31,VALID,0.343359,
2009-09-23, 02:20:04,VALID,1003.12,VALID,0,VALID,89.4791,VALID,0,VALID,24.5406,VALID,31,VALID,0.486719,
2009-09-23, 02:21:04,VALID,1003.12,VALID,0,VALID,89.1282,VALID,0,VALID,24.5017,VALID,29,VALID,0.45,
2009-09-23, 02:22:04,VALID,1003.11,VALID,0,VALID,87.8923,VALID,0,VALID,24.4822,VALID,27,VALID,0.316797,
2009-09-23, 02:23:04,VALID,1003.1,VALID,0,VALID,87.6101,VALID,0,VALID,24.5212,VALID,27,VALID,0.185937,
2009-09-23, 02:24:04,VALID,1003.12,VALID,0,VALID,87.9839,VALID,0,VALID,24.5406,VALID,27,VALID,0,
2009-09-23, 02:25:04,VALID,1003.15,VALID,0,VALID,88.4111,VALID,0,VALID,24.5777,VALID,27,VALID,0.501172,
2009-09-23, 02:26:04,VALID,1003.19,VALID,0,VALID,88.5408,VALID,0,VALID,24.599,VALID,213,VALID,1.01641,
2009-09-23, 02:27:04,VALID,1003.24,VALID,0,VALID,88.8536,VALID,0,VALID,24.6204,VALID,211,VALID,0.658203,
2009-09-23, 02:28:04,VALID,1003.25,VALID,0,VALID,88.8917,VALID,0,VALID,24.6009,VALID,211,VALID,0.211719,
2009-09-23, 02:29:04,VALID,1003.26,VALID,0,VALID,89.0443,VALID,0,VALID,24.6009,VALID,211,VALID,0.258984,
2009-09-23, 02:30:04,VALID,1003.25,VALID,0,VALID,87.7398,VALID,0,VALID,24.6009,VALID,176,VALID,0.84375,
2009-09-23, 02:31:04,VALID,1003.21,VALID,0,VALID,85.5503,VALID,0,VALID,24.7372,VALID,193,VALID,0.523047,
2009-09-23, 02:32:04,VALID,1003.21,VALID,0,VALID,85.001,VALID,0,VALID,24.93,VALID,195,VALID,0.520312,
2009-09-23, 02:33:04,VALID,1003.22,VALID,0,VALID,84.4212,VALID,0,VALID,25.1072,VALID,179,VALID,0.308594,
2009-09-23, 02:34:04,VALID,1003.22,VALID,0,VALID,83.5057,VALID,0,VALID,25.3019,VALID,185,VALID,1.33398,
2009-09-23, 02:35:04,VALID,1003.24,VALID,0,VALID,83.0022,VALID,0,VALID,25.4772,VALID,185,VALID,1.00312,
2009-09-23, 02:36:04,VALID,1003.26,VALID,0,VALID,82.8039,VALID,0,VALID,25.5551,VALID,198,VALID,1.21992,
2009-09-23, 02:37:04,VALID,1003.26,VALID,0,VALID,82.8268,VALID,0,VALID,25.6915,VALID,199,VALID,1.48438,
2009-09-23, 02:38:04,VALID,1003.23,VALID,0,VALID,82.9107,VALID,0,VALID,25.7869,VALID,180,VALID,1.13828,
2009-09-23, 02:39:04,VALID,1003.17,VALID,0,VALID,83.2082,VALID,0,VALID,25.9057,VALID,162,VALID,2.35234,
2009-09-23, 02:40:04,VALID,1003.13,VALID,0,VALID,83.109,VALID,0,VALID,25.9447,VALID,161,VALID,1.25273,
2009-09-23, 02:41:04,VALID,1003.11,VALID,0,VALID,82.3995,VALID,0,VALID,25.9447,VALID,162,VALID,2.05625,
2009-09-23, 02:42:04,VALID,1003.13,VALID,0,VALID,82.3004,VALID,0,VALID,25.9817,VALID,193,VALID,1.23008,
2009-09-23, 02:43:04,VALID,1003.17,VALID,0,VALID,82.1783,VALID,0,VALID,26.0012,VALID,205,VALID,1.47187,
2009-09-23, 02:44:04,VALID,1003.2,VALID,0,VALID,81.8808,VALID,0,VALID,26.0031,VALID,176,VALID,0.719141,
2009-09-23, 02:45:04,VALID,1003.22,VALID,0,VALID,82.1402,VALID,0,VALID,25.9408,VALID,190,VALID,0.798047,
2009-09-23, 02:46:04,VALID,1003.2,VALID,0,VALID,82.308,VALID,0,VALID,25.9427,VALID,184,VALID,1.14414,
2009-09-23, 02:47:04,VALID,1003.19,VALID,0,VALID,82.575,VALID,0,VALID,25.9038,VALID,185,VALID,0.655078,
2009-09-23, 02:48:04,VALID,1003.18,VALID,0,VALID,83.1929,VALID,0,VALID,25.8843,VALID,155,VALID,1.01133,
2009-09-23, 02:49:04,VALID,1003.14,VALID,0,VALID,83.9787,VALID,0,VALID,25.8648,VALID,215,VALID,0.742188,
2009-09-23, 02:50:04,VALID,1003.12,VALID,0,VALID,84.5204,VALID,0,VALID,25.8239,VALID,164,VALID,0.570703,
2009-09-23, 02:51:04,VALID,1003.13,VALID,0,VALID,85.0544,VALID,0,VALID,25.8064,VALID,194,VALID,0.948828,
2009-09-23, 02:52:04,VALID,1003.12,VALID,0,VALID,85.3138,VALID,0,VALID,25.8083,VALID,205,VALID,0.784766,
2009-09-23, 02:53:04,VALID,1003.12,VALID,0,VALID,85.5198,VALID,0,VALID,25.7674,VALID,185,VALID,1.01016,
2009-09-23, 02:54:04,VALID,1003.14,VALID,0,VALID,84.5738,VALID,0,VALID,25.7674,VALID,203,VALID,1.90313,
2009-09-23, 02:55:04,VALID,1003.16,VALID,0,VALID,83.9482,VALID,0,VALID,25.8064,VALID,166,VALID,1.20508,
2009-09-23, 02:56:04,VALID,1003.16,VALID,0,VALID,83.2921,VALID,0,VALID,25.8453,VALID,187,VALID,1.82656,
2009-09-23, 02:57:04,VALID,1003.17,VALID,0,VALID,83.4142,VALID,0,VALID,25.8648,VALID,203,VALID,1.43086,
2009-09-23, 02:58:04,VALID,1003.11,VALID,0,VALID,83.4905,VALID,0,VALID,25.8648,VALID,165,VALID,0.793359,
2009-09-23, 02:59:04,VALID,1003.05,VALID,0,VALID,83.8338,VALID,0,VALID,25.8648,VALID,202,VALID,1.33281,
2009-09-23, 03:00:04,VALID,1003.09,VALID,0,VALID,84.0703,VALID,0,VALID,25.8453,VALID,145,VALID,0.307031,
2009-09-23, 03:01:04,VALID,1003.11,VALID,0,VALID,83.9558,VALID,0,VALID,25.8259,VALID,191,VALID,1.0082,
2009-09-23, 03:02:04,VALID,1003.1,VALID,0,VALID,84.0321,VALID,0,VALID,25.785,VALID,167,VALID,0.830469,
2009-09-23, 03:03:04,VALID,1003.16,VALID,0,VALID,84.3525,VALID,0,VALID,25.7869,VALID,161,VALID,0.957422,
2009-09-23, 03:04:04,VALID,1003.12,VALID,0,VALID,84.3525,VALID,0,VALID,25.7694,VALID,197,VALID,0.242188,
2009-09-23, 03:05:04,VALID,1003.14,VALID,0,VALID,84.383,VALID,0,VALID,25.709,VALID,212,VALID,0.978516,
2009-09-23, 03:06:04,VALID,1003.12,VALID,0,VALID,84.383,VALID,0,VALID,25.709,VALID,212,VALID,0.79375,
2009-09-23, 03:07:04,VALID,1003.13,VALID,0,VALID,84.2915,VALID,0,VALID,25.7304,VALID,201,VALID,0.751953,
2009-09-23, 03:08:04,VALID,1003.09,VALID,0,VALID,84.3907,VALID,0,VALID,25.7304,VALID,164,VALID,0.442969,
2009-09-23, 03:09:04,VALID,1003.12,VALID,0,VALID,84.5661,VALID,0,VALID,25.709,VALID,200,VALID,0.545703,
2009-09-23, 03:10:04,VALID,1003.11,VALID,0,VALID,84.9323,VALID,0,VALID,25.6895,VALID,201,VALID,0.351953,
2009-09-23, 03:11:04,VALID,1003.13,VALID,0,VALID,85.0162,VALID,0,VALID,25.6895,VALID,201,VALID,0.799219,
2009-09-23, 03:12:04,VALID,1003.1,VALID,0,VALID,85.2985,VALID,0,VALID,25.6895,VALID,173,VALID,1.41367,
2009-09-23, 03:13:04,VALID,1003.09,VALID,0,VALID,85.3977,VALID,0,VALID,25.709,VALID,174,VALID,0.733203,
2009-09-23, 03:14:04,VALID,1003.09,VALID,0,VALID,85.4358,VALID,0,VALID,25.709,VALID,178,VALID,0.597656,
2009-09-23, 03:15:04,VALID,1003.05,VALID,0,VALID,85.4358,VALID,0,VALID,25.709,VALID,185,VALID,0.565625,
2009-09-23, 03:16:04,VALID,1003.05,VALID,0,VALID,85.3824,VALID,0,VALID,25.6895,VALID,175,VALID,1.53477,
2009-09-23, 03:17:04,VALID,1003.05,VALID,0,VALID,85.5121,VALID,0,VALID,25.709,VALID,190,VALID,0.375391,
2009-09-23, 03:18:04,VALID,1003.02,VALID,0,VALID,85.4816,VALID,0,VALID,25.748,VALID,185,VALID,0.569531,
2009-09-23, 03:19:04,VALID,1003.03,VALID,0,VALID,85.3595,VALID,0,VALID,25.748,VALID,192,VALID,1.0332,
2009-09-23, 03:20:04,VALID,1003.02,VALID,0,VALID,85.3824,VALID,0,VALID,25.748,VALID,206,VALID,0.483594,
2009-09-23, 03:21:04,VALID,1003.03,VALID,0,VALID,85.474,VALID,0,VALID,25.748,VALID,209,VALID,0.415234,
2009-09-23, 03:22:04,VALID,1003,VALID,0,VALID,85.6723,VALID,0.100563,VALID,25.7285,VALID,209,VALID,0.0808594,
2009-09-23, 03:23:04,VALID,1003,VALID,0,VALID,85.7562,VALID,0,VALID,25.6895,VALID,208,VALID,0.313281,
2009-09-23, 03:24:04,VALID,1002.99,VALID,0,VALID,86.0538,VALID,0,VALID,25.6895,VALID,116,VALID,0.548047,
2009-09-23, 03:25:04,VALID,1002.98,VALID,0,VALID,86.0919,VALID,0,VALID,25.67,VALID,166,VALID,0.635938,
2009-09-23, 03:26:04,VALID,1002.95,VALID,0,VALID,86.0767,VALID,0,VALID,25.6486,VALID,172,VALID,0.742969,
2009-09-23, 03:27:04,VALID,1002.96,VALID,0,VALID,86.0233,VALID,0,VALID,25.6681,VALID,170,VALID,0.160938,
2009-09-23, 03:28:04,VALID,1002.96,VALID,0,VALID,85.9622,VALID,0,VALID,25.6915,VALID,216,VALID,0.447266,
2009-09-23, 03:29:04,VALID,1002.96,VALID,0,VALID,85.5503,VALID,0,VALID,25.6895,VALID,239,VALID,0.673828,
2009-09-23, 03:30:04,VALID,1002.96,VALID,0,VALID,85.5503,VALID,0,VALID,25.709,VALID,243,VALID,0.185156,
2009-09-23, 03:31:04,VALID,1002.99,VALID,0,VALID,85.4892,VALID,0,VALID,25.7304,VALID,231,VALID,0.714844,
2009-09-23, 03:32:04,VALID,1002.99,VALID,0,VALID,85.5198,VALID,0,VALID,25.7071,VALID,221,VALID,0.759766,
2009-09-23, 03:33:04,VALID,1003,VALID,0,VALID,85.3977,VALID,0,VALID,25.7071,VALID,260,VALID,0.233203,
2009-09-23, 03:34:04,VALID,1002.96,VALID,0,VALID,85.0696,VALID,0,VALID,25.709,VALID,241,VALID,0.265625,
2009-09-23, 03:35:04,VALID,1002.98,VALID,0,VALID,84.9857,VALID,0,VALID,25.748,VALID,190,VALID,1.12344,
2009-09-23, 03:36:04,VALID,1002.99,VALID,0,VALID,85.0086,VALID,0,VALID,25.7869,VALID,190,VALID,0.563281,
2009-09-23, 03:37:04,VALID,1003.02,VALID,0,VALID,84.9781,VALID,0,VALID,25.746,VALID,191,VALID,0.142188,
2009-09-23, 03:38:04,VALID,1003.05,VALID,0,VALID,84.9247,VALID,0,VALID,25.7674,VALID,188,VALID,0.314844,
2009-09-23, 03:39:04,VALID,1003.07,VALID,0,VALID,85.0773,VALID,0,VALID,25.746,VALID,210,VALID,0.811328,
2009-09-23, 03:40:04,VALID,1003.04,VALID,0,VALID,85.123,VALID,0,VALID,25.7674,VALID,239,VALID,0.245703,
2009-09-23, 03:41:04,VALID,1003.05,VALID,0,VALID,85.0849,VALID,0,VALID,25.8064,VALID,243,VALID,0.581641,
2009-09-23, 03:42:04,VALID,1003.08,VALID,0,VALID,85.2985,VALID,0,VALID,25.7869,VALID,167,VALID,0.336328,
2009-09-23, 03:43:04,VALID,1003.13,VALID,0,VALID,85.2222,VALID,0,VALID,25.7869,VALID,170,VALID,0.429688,
2009-09-23, 03:44:04,VALID,1003.15,VALID,0,VALID,85.1765,VALID,0,VALID,25.785,VALID,261,VALID,0.617969,
2009-09-23, 03:45:04,VALID,1003.2,VALID,0,VALID,85.2756,VALID,0,VALID,25.8064,VALID,291,VALID,0.601563,
2009-09-23, 03:46:04,VALID,1003.22,VALID,0,VALID,85.2451,VALID,0,VALID,25.8259,VALID,316,VALID,0.133594,